User: anonymous   Login
Location: Zilina
(0.0000°N, 18.7333°E)
Time: 21:51:36
(UTC+02:00)
Language:

MOS 1 - Orbit

View from above orbital plane
View from above orbital plane
View from above satellite
View from above satellite

Ground track
Ground track

The orbit data is extracted from the following two-line orbital elements,

1 17527U 87018A   19113.11285250  .00000234  00000-0  18185-3 0  9990
2 17527  99.2103 147.2286 0008217 228.8156 195.5653 14.02528629644061
Epoch (UTC): 23 April 2019 02:42:30
Eccentricity: 0.0008217
inclination: 99.2103°
perigee height: 879 km
apogee height: 891 km
right ascension of ascending node: 147.2286°
argument of perigee: 228.8156°
revolutions per day: 14.02528629
mean anomaly at epoch: 195.5653°
orbit number at epoch: 64406

The dashed part of the orbit path shows where the satellite is in the earth's shadow,  

DLR